Content
SEND FEEDBACK

Daily
Averages
Monthly
Summary
United States of America

JASPER, TEXAS


Home > North America > United States > Texas
Elevation: 29 feet     Latitude: 30 56N     Longitude: 094 00W

WEATHER
 
SELECT A DAY
Number of Records: 206,695;   Date Range: 3/13/02 - 9/16/14
 
SHARE

PRINT THIS DATA

[ ← Previous Day ]
WEATHER ALMANAC - FEBRUARY 1, 2013
[ Next Day → ]
[ °C ]   °F
Weather ElementAverageHighLow
Temperature55.3 °F69.6 °F (3:15 pm)41.4 °F (4:35 am)
Dewpoint40 °F45.7 °F (8:15 pm)33.3 °F (4:15 pm)
Humidity61.8 %94 % (4:55 am)27 % (3:35 pm)
Barometer30.34 in30.41 in (8:55 am)30.28 in (5:15 pm)
Wind Speed2.9 mph10.4 mph (4:35 pm)
Weather ElementAverage
Visibility10 mi
Wind DirectionE (94.3 °)

Weather ElementTotal
Precipitation---
Heating Degree Days9.5 (Base 65)
Growing Degree Days5.5 (Base 50)
Averaged from 67 records on February 1, 2013
WEATHER CONDITIONS BREAKOUT
WIND DIRECTION BREAKOUT
WEATHER BY HOUR - FEBRUARY 1, 2013
[ °C ]   °F
Local TimeTemperatureDewpointHumidityBarometerVisibilityWind DirectionWind SpeedGust SpeedPrecipitationEventsConditions
12:35 AM48.9 °F39.7 °F71 %30.33 in10.0 miCalmClear
12:55 AM47.8 °F40.5 °F76 %30.34 in10.0 miCalmClear
1:15 AM47.3 °F40.6 °F78 %30.34 in10.0 miCalmClear
1:35 AM47.3 °F41.4 °F80 %30.33 in10.0 miCalmClear
1:55 AM46.4 °F41.2 °F82 %30.33 in10.0 miCalmClear
2:15 AM45.3 °F41.2 °F85 %30.33 in10.0 miCalmClear
2:35 AM44.4 °F40.6 °F87 %30.33 in10.0 miCalmClear
2:55 AM43.3 °F40.5 °F90 %30.34 in10.0 miCalmClear
3:15 AM43.5 °F40.5 °F89 %30.33 in10.0 miCalmClear
3:35 AM43.5 °F40.3 °F88 %30.34 in10.0 miCalmClear
3:55 AM42.6 °F40.1 °F91 %30.34 in10.0 miCalmClear
4:15 AM41.7 °F39.7 °F93 %30.34 in10.0 miCalmClear
4:35 AM41.4 °F39.6 °F93 %30.34 in10.0 miCalmClear
4:55 AM41.5 °F39.9 °F94 %30.34 in10.0 miCalmClear
5:15 AM41.7 °F39.9 °F93 %30.36 in10.0 miNorth (360°)5.8 mphClear
5:35 AM43.0 °F40.6 °F91 %30.36 in10.0 miNorth (350°)8.1 mphClear
5:55 AM45.0 °F40.8 °F85 %30.38 in10.0 miCalmClear
6:15 AM43.7 °F40.8 °F90 %30.38 in10.0 miCalmClear
6:35 AM43.0 °F40.8 °F92 %30.38 in10.0 miCalmClear
7:15 AM42.8 °F40.5 °F91 %30.39 in10.0 miCalmClear
7:35 AM42.4 °F40.3 °F92 %30.39 in10.0 miCalmClear
8:15 AM43.9 °F41.4 °F91 %30.40 in10.0 miCalmClear
8:35 AM46.4 °F41.7 °F84 %30.40 in10.0 miENE (70°)3.5 mphClear
8:55 AM50.4 °F42.1 °F73 %30.41 in10.0 miEast (80°)5.8 mphClear
9:15 AM52.9 °F41.2 °F64 %30.41 in10.0 miENE (60°)4.6 mphClear
9:35 AM55.2 °F41.4 °F60 %30.41 in10.0 miEast (90°)4.6 mphClear
9:55 AM57.4 °F41.0 °F54 %30.41 in10.0 miEast (90°)4.6 mphClear
10:15 AM59.0 °F40.3 °F50 %30.41 in10.0 miENE (70°)3.5 mphClear
10:35 AM60.4 °F39.0 °F45 %30.41 in10.0 miCalmClear
10:55 AM61.7 °F38.1 °F42 %30.40 in10.0 miCalmClear
11:15 AM62.4 °F38.3 °F41 %30.40 in10.0 miSW (220°)3.5 mphClear
11:35 AM63.3 °F38.7 °F40 %30.39 in10.0 miSW (220°)4.6 mphClear
11:55 AM64.6 °F38.3 °F38 %30.39 in10.0 miWest (270°)3.5 mphClear
12:15 PM65.1 °F37.2 °F36 %30.38 in10.0 miSouth (190°)3.5 mphClear
12:35 PM65.3 °F37.2 °F35 %30.36 in10.0 miCalmClear
12:55 PM66.2 °F36.7 °F34 %30.36 in10.0 miCalmClear
1:15 PM66.9 °F37.2 °F34 %30.34 in10.0 miSSE (150°)3.5 mphClear
1:35 PM68.0 °F36.9 °F32 %30.33 in10.0 miCalmClear
2:15 PM69.3 °F36.3 °F30 %30.31 in10.0 miSouth (170°)5.8 mphClear
2:35 PM69.3 °F35.8 °F29 %30.31 in10.0 miSSW (200°)4.6 mphClear
3:15 PM69.6 °F34.7 °F28 %30.31 in10.0 miESE (120°)3.5 mphClear
3:35 PM69.6 °F34.2 °F27 %30.30 in10.0 miSW (220°)5.8 mphClear
3:55 PM69.4 °F34.0 °F27 %30.30 in10.0 miSouth (170°)4.6 mphClear
4:15 PM69.1 °F33.3 °F27 %30.29 in10.0 miSE (140°)4.6 mphClear
4:35 PM68.9 °F33.8 °F27 %30.29 in10.0 miSouth (180°)10.4 mphClear
4:55 PM68.4 °F33.4 °F27 %30.29 in10.0 miSE (140°)3.5 mphClear
5:15 PM67.6 °F34.5 °F29 %30.28 in10.0 miSE (140°)3.5 mphClear
5:35 PM66.4 °F34.7 °F31 %30.28 in10.0 miCalmClear
5:55 PM64.9 °F35.6 °F34 %30.28 in10.0 miSSE (160°)3.5 mphClear
6:15 PM63.0 °F36.9 °F38 %30.28 in10.0 miSSE (160°)6.9 mphClear
6:35 PM62.1 °F37.6 °F40 %30.28 in10.0 miSouth (170°)4.6 mphClear
6:55 PM61.5 °F38.1 °F42 %30.28 in10.0 miSouth (170°)5.8 mphClear
7:15 PM60.6 °F41.5 °F49 %30.29 in10.0 miSouth (170°)6.9 mphClear
7:35 PM59.5 °F44.2 °F57 %30.30 in10.0 miSouth (170°)5.8 mphClear
7:55 PM58.8 °F45.3 °F61 %30.30 in10.0 miSouth (170°)8.1 mphClear
8:15 PM57.9 °F45.7 °F64 %30.30 in10.0 miSSE (160°)4.6 mphClear
8:35 PM57.0 °F45.5 °F65 %30.31 in10.0 miSouth (170°)6.9 mphClear
8:55 PM56.3 °F45.3 °F67 %30.30 in10.0 miSouth (170°)8.1 mphClear
9:15 PM55.6 °F44.8 °F67 %30.31 in10.0 miSouth (180°)5.8 mphClear
9:35 PM54.7 °F44.6 °F69 %30.30 in10.0 miSSE (160°)5.8 mphClear
9:55 PM54.5 °F44.6 °F69 %30.31 in10.0 miSSE (160°)5.8 mphClear
10:15 PM54.3 °F44.6 °F70 %30.31 in10.0 miSouth (170°)5.8 mphClear
10:35 PM53.6 °F44.8 °F72 %30.31 in10.0 miSSE (160°)3.5 mphClear
10:55 PM52.9 °F44.8 °F74 %30.32 in10.0 miCalmClear
11:15 PM52.2 °F44.8 °F76 %30.31 in10.0 miESE (120°)3.5 mphClear
11:35 PM51.4 °F44.8 °F78 %30.31 in10.0 miCalmClear
11:55 PM50.4 °F44.6 °F81 %30.32 in10.0 miCalmClear
Hourly data recorded from KJAS, located miles away from Jasper, Texas







STORIES FROM OUR PARTNERS